TimeMDT,TemperatureF,Dew PointF,Humidity,Sea Level PressureIn,VisibilityMPH,Wind Direction,Wind SpeedMPH,Gust SpeedMPH,PrecipitationIn,Events,Conditions,WindDirDegrees,DateUTC
12:55 AM,30.0,28.9,96,29.98,10.0,West,8.1,-,N/A,,Clear,260,2013-04-13 06:55:00
1:55 AM,30.0,28.0,92,29.97,10.0,West,6.9,-,N/A,,Clear,270,2013-04-13 07:55:00
2:55 AM,28.0,26.1,92,29.95,10.0,WSW,6.9,-,N/A,,Clear,250,2013-04-13 08:55:00
3:55 AM,26.1,24.1,92,29.93,10.0,WNW,4.6,-,N/A,,Clear,290,2013-04-13 09:55:00
4:55 AM,25.0,21.9,88,29.90,10.0,Calm,Calm,-,N/A,,Clear,0,2013-04-13 10:55:00
5:55 AM,23.0,21.9,96,29.89,10.0,ESE,3.5,-,N/A,,Clear,120,2013-04-13 11:55:00
6:55 AM,24.1,21.9,91,29.86,10.0,East,6.9,-,N/A,,Clear,80,2013-04-13 12:55:00
7:55 AM,28.0,26.1,92,29.82,10.0,East,6.9,-,N/A,,Scattered Clouds,100,2013-04-13 13:55:00
8:55 AM,30.0,27.0,88,29.79,10.0,East,9.2,-,N/A,,Clear,100,2013-04-13 14:55:00
9:55 AM,34.0,30.0,85,29.75,10.0,East,11.5,-,N/A,,Clear,100,2013-04-13 15:55:00
10:55 AM,35.1,30.9,85,29.72,10.0,ESE,12.7,-,N/A,,Clear,110,2013-04-13 16:55:00
11:55 AM,36.0,30.9,82,29.69,10.0,East,17.3,-,N/A,,Overcast,100,2013-04-13 17:55:00
12:55 PM,37.0,32.0,82,29.65,10.0,East,17.3,-,N/A,,Overcast,100,2013-04-13 18:55:00
1:17 PM,37.4,30.2,75,29.59,10.0,ESE,21.9,-,N/A,,Overcast,110,2013-04-13 19:17:00
1:55 PM,37.0,30.9,79,29.62,10.0,ESE,19.6,27.6,N/A,,Overcast,110,2013-04-13 19:55:00
2:55 PM,37.9,32.0,79,29.60,10.0,ESE,25.3,31.1,N/A,,Mostly Cloudy,110,2013-04-13 20:55:00
3:05 PM,37.4,32.0,81,29.54,10.0,ESE,24.2,-,N/A,,Scattered Clouds,110,2013-04-13 21:05:00
3:55 PM,37.9,32.0,79,29.57,10.0,ESE,18.4,29.9,N/A,,Clear,110,2013-04-13 21:55:00
4:55 PM,37.0,32.0,82,29.56,10.0,ESE,23.0,34.5,N/A,,Overcast,110,2013-04-13 22:55:00
5:12 PM,37.4,32.0,81,29.51,10.0,ESE,20.7,-,N/A,,Overcast,110,2013-04-13 23:12:00
5:55 PM,36.0,32.0,86,29.55,10.0,East,18.4,26.5,N/A,,Overcast,100,2013-04-13 23:55:00
6:55 PM,35.1,32.0,89,29.54,10.0,East,19.6,-,N/A,,Overcast,100,2013-04-14 00:55:00
7:15 PM,35.6,32.0,87,29.49,10.0,East,18.4,-,N/A,,Overcast,100,2013-04-14 01:15:00
7:55 PM,34.0,32.0,92,29.53,10.0,East,17.3,-,0.00,,Overcast,90,2013-04-14 01:55:00
8:55 PM,34.0,33.1,96,29.52,9.0,East,18.4,-,N/A,,Overcast,90,2013-04-14 02:55:00
9:55 PM,35.1,33.1,92,29.49,8.0,East,18.4,-,N/A,,Overcast,90,2013-04-14 03:55:00
10:55 PM,35.1,33.1,92,29.48,8.0,East,19.6,-,N/A,,Overcast,100,2013-04-14 04:55:00
11:55 PM,35.1,33.1,92,29.46,7.0,East,18.4,-,0.00,,Overcast,100,2013-04-14 05:55:00